When you browse on this site, cookies collect data to enhance your experience and personalize the content and advertising you see.
Visit our Privacy Policy to learn more. By continuing to use the site, you agree to this use of cookies and data.

Meteo pe oră la Al Hufuf

Astăzi, 6 August, Joi

Timp Temperatura Precipitaţii Vânt Presiune Umiditate
00:00 +34°C° 0 mm 2 m/s 735 mmHg 27%
01:00 +34°C° 0 mm 2 m/s 735 mmHg 26%
02:00 +32°C° 0 mm 2 m/s 734 mmHg 26%
03:00 +32°C° 0 mm 2 m/s 734 mmHg 22%
04:00 +34°C° 0 mm 3 m/s 735 mmHg 21%
05:00 +35°C° 0 mm 3 m/s 735 mmHg 20%
06:00 +35°C° 0 mm 4 m/s 736 mmHg 18%
07:00 +39°C° 0 mm 5 m/s 736 mmHg 17%
08:00 +42°C° 0 mm 5 m/s 737 mmHg 15%
09:00 +46°C° 0 mm 6 m/s 737 mmHg 14%
10:00 +47°C° 0 mm 6 m/s 737 mmHg 12%
11:00 +48°C° 0 mm 6 m/s 736 mmHg 11%
12:00 +49°C° 0 mm 6 m/s 736 mmHg 9%
13:00 +51°C° 0 mm 6 m/s 736 mmHg 9%
14:00 +51°C° 0 mm 6 m/s 735 mmHg 8%
15:00 +51°C° 0 mm 6 m/s 735 mmHg 8%
16:00 +48°C° 0 mm 5 m/s 735 mmHg 10%
17:00 +46°C° 0 mm 5 m/s 735 mmHg 12%
18:00 +43°C° 0 mm 5 m/s 735 mmHg 14%
19:00 +41°C° 0 mm 4 m/s 735 mmHg 20%
20:00 +37°C° 0 mm 3 m/s 735 mmHg 26%
21:00 +35°C° 0 mm 2 m/s 735 mmHg 32%
22:00 +35°C° 0 mm 2 m/s 735 mmHg 31%
23:00 +35°C° 0 mm 2 m/s 735 mmHg 30%

Mâine, 7 August, Vineri

Timp Temperatura Precipitaţii Vânt Presiune Umiditate
00:00 +34°C° 0 mm 2 m/s 736 mmHg 29%
01:00 +35°C° 0 mm 3 m/s 735 mmHg 27%
02:00 +35°C° 0 mm 3 m/s 735 mmHg 25%
03:00 +35°C° 0 mm 4 m/s 735 mmHg 23%
04:00 +35°C° 0 mm 5 m/s 735 mmHg 22%
05:00 +35°C° 0 mm 5 m/s 735 mmHg 21%
06:00 +35°C° 0 mm 5 m/s 736 mmHg 20%
07:00 +39°C° 0 mm 6 m/s 736 mmHg 16%
08:00 +42°C° 0 mm 6 m/s 736 mmHg 12%
09:00 +46°C° 0 mm 7 m/s 736 mmHg 8%
10:00 +47°C° 0 mm 6 m/s 736 mmHg 8%
11:00 +49°C° 0 mm 6 m/s 736 mmHg 7%
12:00 +50°C° 0 mm 5 m/s 736 mmHg 7%
13:00 +52°C° 0 mm 5 m/s 735 mmHg 6%
14:00 +52°C° 0 mm 5 m/s 735 mmHg 6%
15:00 +52°C° 0 mm 5 m/s 734 mmHg 6%
16:00 +49°C° 0 mm 5 m/s 734 mmHg 8%
17:00 +45°C° 0 mm 4 m/s 734 mmHg 11%
18:00 +43°C° 0 mm 4 m/s 734 mmHg 14%
19:00 +39°C° 0 mm 3 m/s 734 mmHg 18%
20:00 +37°C° 0 mm 2 m/s 734 mmHg 23%
21:00 +33°C° 0 mm 1 m/s 734 mmHg 28%
22:00 +34°C° 0 mm 1 m/s 734 mmHg 26%
23:00 +35°C° 0 mm 2 m/s 734 mmHg 24%

Poimâine, 8 August, Sâmbătă

Timp Temperatura Precipitaţii Vânt Presiune Umiditate
00:00 +35°C° 0 mm 2 m/s 734 mmHg 22%
01:00 +35°C° 0 mm 3 m/s 734 mmHg 20%
02:00 +36°C° 0 mm 4 m/s 733 mmHg 18%
03:00 +36°C° 0 mm 5 m/s 733 mmHg 16%
04:00 +36°C° 0 mm 5 m/s 733 mmHg 16%
05:00 +36°C° 0 mm 5 m/s 734 mmHg 16%
06:00 +36°C° 0 mm 5 m/s 734 mmHg 16%
07:00 +40°C° 0 mm 5 m/s 734 mmHg 13%
08:00 +43°C° 0 mm 5 m/s 735 mmHg 11%
09:00 +47°C° 0 mm 6 m/s 735 mmHg 9%
10:00 +49°C° 0 mm 5 m/s 735 mmHg 9%
11:00 +50°C° 0 mm 4 m/s 734 mmHg 8%
12:00 +51°C° 0 mm 3 m/s 734 mmHg 7%
13:00 +51°C° 0 mm 3 m/s 733 mmHg 7%
14:00 +52°C° 0 mm 3 m/s 733 mmHg 7%
15:00 +52°C° 0 mm 3 m/s 732 mmHg 6%
16:00 +50°C° 0 mm 3 m/s 732 mmHg 7%
17:00 +47°C° 0 mm 3 m/s 732 mmHg 8%
18:00 +45°C° 0 mm 3 m/s 732 mmHg 9%
19:00 +42°C° 0 mm 2 m/s 732 mmHg 12%
20:00 +40°C° 0 mm 2 m/s 733 mmHg 15%
21:00 +38°C° 0 mm 2 m/s 733 mmHg 17%
22:00 +38°C° 0 mm 2 m/s 733 mmHg 18%
23:00 +37°C° 0 mm 2 m/s 733 mmHg 18%

9 August, Duminică

Timp Temperatura Precipitaţii Vânt Presiune Umiditate
00:00 +35°C° 0 mm 1 m/s 733 mmHg 18%
01:00 +36°C° 0 mm 2 m/s 732 mmHg 17%
02:00 +36°C° 0 mm 2 m/s 732 mmHg 17%
03:00 +36°C° 0 mm 2 m/s 732 mmHg 16%
04:00 +37°C° 0 mm 2 m/s 733 mmHg 16%
05:00 +37°C° 0 mm 2 m/s 733 mmHg 16%
06:00 +37°C° 0 mm 2 m/s 734 mmHg 16%
07:00 +39°C° 0 mm 3 m/s 734 mmHg 13%
08:00 +43°C° 0 mm 4 m/s 735 mmHg 11%
09:00 +47°C° 0 mm 5 m/s 735 mmHg 9%
10:00 +49°C° 0 mm 5 m/s 735 mmHg 8%
11:00 +50°C° 0 mm 5 m/s 734 mmHg 8%
12:00 +52°C° 0 mm 5 m/s 734 mmHg 7%
13:00 +52°C° 0 mm 5 m/s 734 mmHg 7%
14:00 +53°C° 0 mm 5 m/s 734 mmHg 7%
15:00 +53°C° 0 mm 5 m/s 733 mmHg 7%
16:00 +50°C° 0 mm 5 m/s 733 mmHg 11%
17:00 +47°C° 0 mm 5 m/s 733 mmHg 15%
18:00 +45°C° 0 mm 5 m/s 734 mmHg 19%
19:00 +42°C° 0 mm 4 m/s 734 mmHg 22%
20:00 +39°C° 0 mm 2 m/s 734 mmHg 26%
21:00 +36°C° 0 mm 1 m/s 735 mmHg 29%
22:00 +36°C° 0 mm 1 m/s 734 mmHg 27%
23:00 +37°C° 0 mm 2 m/s 734 mmHg 24%

10 August, Luni

Timp Temperatura Precipitaţii Vânt Presiune Umiditate
00:00 +37°C° 0 mm 2 m/s 734 mmHg 21%
01:00 +37°C° 0 mm 2 m/s 734 mmHg 21%
02:00 +36°C° 0 mm 1 m/s 734 mmHg 21%
03:00 +36°C° 0 mm 1 m/s 734 mmHg 21%
04:00 +37°C° 0 mm 2 m/s 734 mmHg 18%
05:00 +37°C° 0 mm 3 m/s 735 mmHg 15%
06:00 +37°C° 0 mm 4 m/s 735 mmHg 13%
07:00 +41°C° 0 mm 5 m/s 736 mmHg 11%
08:00 +45°C° 0 mm 6 m/s 736 mmHg 10%
09:00 +47°C° 0 mm 7 m/s 736 mmHg 9%
10:00 +50°C° 0 mm 8 m/s 736 mmHg 8%
11:00 +52°C° 0 mm 8 m/s 736 mmHg 7%
12:00 +54°C° 0 mm 8 m/s 736 mmHg 7%
13:00 +54°C° 0 mm 8 m/s 735 mmHg 6%
14:00 +55°C° 0 mm 7 m/s 735 mmHg 6%
15:00 +55°C° 0 mm 7 m/s 734 mmHg 6%
16:00 +52°C° 0 mm 6 m/s 734 mmHg 8%
17:00 +48°C° 0 mm 6 m/s 734 mmHg 11%
18:00 +46°C° 0 mm 5 m/s 734 mmHg 13%
19:00 +43°C° 0 mm 4 m/s 735 mmHg 17%
20:00 +39°C° 0 mm 3 m/s 735 mmHg 21%
21:00 +37°C° 0 mm 3 m/s 736 mmHg 25%
22:00 +36°C° 0 mm 2 m/s 735 mmHg 24%
23:00 +36°C° 0 mm 2 m/s 735 mmHg 24%

11 August, Marţi

Timp Temperatura Precipitaţii Vânt Presiune Umiditate
00:00 +35°C° 0 mm 2 m/s 735 mmHg 23%
01:00 +36°C° 0 mm 3 m/s 735 mmHg 21%
02:00 +36°C° 0 mm 3 m/s 735 mmHg 19%
03:00 +37°C° 0 mm 4 m/s 735 mmHg 16%
04:00 +36°C° 0 mm 5 m/s 736 mmHg 15%
05:00 +36°C° 0 mm 5 m/s 736 mmHg 14%
06:00 +36°C° 0 mm 6 m/s 736 mmHg 12%
07:00 +40°C° 0 mm 7 m/s 736 mmHg 12%
08:00 +43°C° 0 mm 7 m/s 737 mmHg 11%
09:00 +46°C° 0 mm 8 m/s 737 mmHg 10%
10:00 +49°C° 0 mm 8 m/s 737 mmHg 9%
11:00 +50°C° 0 mm 8 m/s 736 mmHg 8%
12:00 +52°C° 0 mm 8 m/s 736 mmHg 7%
13:00 +52°C° 0 mm 7 m/s 736 mmHg 7%
14:00 +52°C° 0 mm 7 m/s 735 mmHg 6%
15:00 +53°C° 0 mm 7 m/s 735 mmHg 6%
16:00 +51°C° 0 mm 6 m/s 735 mmHg 7%
17:00 +48°C° 0 mm 5 m/s 735 mmHg 9%
18:00 +45°C° 0 mm 4 m/s 735 mmHg 10%
19:00 +42°C° 0 mm 3 m/s 735 mmHg 15%
20:00 +39°C° 0 mm 2 m/s 735 mmHg 20%
21:00 +35°C° 0 mm 1 m/s 736 mmHg 25%
22:00 +34°C° 0 mm 1 m/s 735 mmHg 25%
23:00 +35°C° 0 mm 2 m/s 735 mmHg 25%
Arată mai mult